Location: *
(46.1833°N, 22.7667°E)
Time: 05:23:15
(UTC+00:00)

Cosmos 1544 - Pass Details

Date: 17 September 2019
Orbit: 475 x 491 km, 82.5° (Epoch: 23 October)

Event Time Altitude Azimuth Distance (km) Brightness Sun altitude
Rises 18:03:52 0° 197° (SSW) 2,513 6.7 -15.4°
Reaches altitude 10° 18:05:58 10° 201° (SSW) 1,640 5.8 -15.8°
Maximum altitude 18:09:30 57° 281° (WNW) 570 3.7 -16.4°
Drops below altitude 10° 18:13:04 10° 1° (N) 1,660 6.0 -16.9°
Sets 18:15:12 0° 6° (N) 2,546 6.9 -17.3°
